FREGAT DEB, 43395

Orbit data source: Space-Track

FREGAT DEB, 43395 is space debris in GEO originally from a launch on Thu, 20 Jan 2011 UTC launched from the Tyuratam Missile And Space Complex (TTMTR). Debris objects in space refer to the collection of defunct objects orbiting the Earth. Examples of debris include non-operational satellites, rocket bodies, and fragments generated from explosions, collisions, or faulty payload assembly.

Not visible in the next 10 days
Identifier
43395, 2011-001J
Orbit
GEO
Country
Flag of CISCIS
Related business
Manufacturer
Lavochkin
Mission
Spacecraft
Bus & Motor
Unknown
Mass
Unknown
Launch date (UTC)
2011-01-20 (15 years ago)
Launch vehicle
Unknown
Launch site
Tyuratam Missile And Space Complex (TTMTR)
Object type
Payload
Rocket body
Debris
Shape & HBR
Unknown shape, 1.1 m
Radar Cross Section
Medium (>0.1 m² and <1 m²)

Expand to show TLE details & history
Last TLE update: 4 months ago

TLE from 4 months ago
0 FREGAT DEB
1 43395U 11001J   26046.20062002 -.00000236  00000-0  00000-0 0  9999
2 43395  10.0563  43.8552 0101231  55.3124   5.9388  1.02850450 52797
Epoch: 2026-02-15T04:48Z
TLE epoch observation values (Epoch: 2026-02-15T04:48:53.569Z)
Latitude
8.81848°
Longitude
-112.5787°
Altitude
34,660 km
Speed
3.132 km/s
True Right ascension
06h 59m 25s
True Declination
8° 48' 34"
Sunlit
Object was in daylight at epoch
Visualization orbit readout
Latitude
Unknown
Longitude
Unknown
Altitude
Unknown
Speed
Unknown
Apparent Right ascension
Unknown
Apparent Declination
Unknown
Sunlit
N/A
Visualization observer readout
Local Sidereal Time
21:34:56
Azimuth
Unknown
Elevation
Unknown
Doppler factor
Unknown
Orbital elements
Apogee altitude
35,499.571 km
Perigee altitude
34,660.203 km
Semi-major axis
41,458.024 km
Eccentricity
0.01012
Inclination
10.0563°
RAAN
43.8552°
Arg. of periapsis
55.3124°
True anomaly
6.06035°
Mean anomaly
5.9388°
Eccentric anomaly
5.99942°
Mean motion
0.25712 °/min
Orbital period
1,400.14 mins
BSTAR
0
Loading maneuver chart data...
Computing Atmospheric mass density...
Loading historical data...
Loading historical data...
Loading historical data...
Loading historical data...
Loading historical data...
Loading historical data...
Loading historical data...

Documentation

Showing up to 5 results
|